Location: Unspecified
(39.0670°S, 0.0000°E)
Time: 14:00:29
(UTC+00:00)

Envisat - Pass Details

Date: 29 June 2019
Orbit: 764 x 766 km, 98.1° (Epoch: 19 August)

Event Time Altitude Azimuth Distance (km) Brightness Sun altitude
Rises 06:30:02 0° 10° (N) 3,221 6.7 -9.6°
Reaches altitude 10° 06:32:20 10° 8° (N) 2,303 5.9 -9.1°
Maximum altitude 06:37:25 74° 282° (WNW) 806 3.0 -8.2°
Drops below altitude 10° 06:42:34 10° 196° (SSW) 2,334 5.1 -7.3°
Sets 06:44:54 0° 194° (SSW) 3,267 5.9 -6.9°
